Starlink 31991

operational
NORAD ID: 59963 Int'l Des: 2024-107 Owner: SPXS Country: US Constellation: starlink
LEOCIRCULAR

关于 Starlink 31991

正在加载描述...

实时位置

正在加载3D地球...

即将过境

高度历史

Altitude vs Time

uPlot chart will show altitude changes over time

两行轨道根数

1 59963U 24107U 25308.26533921 -.00000265 00000-0 31669-5 0 9999
2 59963 53.1604 288.0988 0001219 92.6045 267.5096 15.30193788 80597
Epoch: Nov 4, 2025 • Age: 19 hours

当前状态

高度 479.9 km
速度 7.63 km/s
星下点 48.55°N, 22.61°W
发射日期 Jun 5, 2024
运行时间 1.4 years
类型 internet

技术详情

分类 Payload
质量 730.00 kg
干质量 700.00 kg
总质量 730.00 kg
长度 0.30 m
直径 4.10 m
跨度 29.00 m
形状 Box + pan
制造商 SPXS
平台类型 Starlink V2M
阶段状态 In Orbit
所有者/国家 SPXS/US

大型星座

Loading constellations...